DW8873 Weather Reports


Display with metric or nautical units.
time (UTC)temp
F
wind
direction
speed
MPH
gust
MPH
rain 1hr
in
rain 24hr
in
rain mn
in
humidity
%
barometer
mb
20260831142030 54 336 0.0 1.0 0.00 0.00 0.00 1 1027.4
20260831140954 54 336 0.0 2.0 0.00 0.00 0.00 1 1027.4
20260831135922 54 336 1.0 2.0 0.00 0.00 0.00 1 1027.8
20260831134849 54 336 1.0 2.0 0.00 0.00 0.00 1 1027.8
20260831133847 55 336 1.0 1.0 0.00 0.00 0.00 1 1027.8
20260831132845 55 336 1.0 1.0 0.00 0.00 0.00 1 1027.8
20260831131813 56 336 0.0 0.0 0.00 0.00 0.00 1 1027.8
20260831130811 56 336 0.0 0.0 0.00 0.00 0.00 1 1028.1
20260831125810 56 336 0.0 0.0 0.00 0.00 0.00 1 1028.1
20260831124808 56 336 0.0 0.0 0.00 0.00 0.00 1 1028.1
20260831123806 56 336 0.0 0.0 0.00 0.00 0.00 1 1028.1
20260831122805 56 336 0.0 0.0 0.00 0.00 0.00 1 1028.1
20260831121803 56 336 0.0 0.0 0.00 0.00 0.00 1 1028.5
20260831120802 57 336 0.0 0.0 0.00 0.00 0.00 1 1028.5
20260831115801 57 336 0.0 0.0 0.00 0.00 0.00 1 1028.5
20260831114657 58 336 0.0 0.0 0.00 0.00 0.00 1 1028.5
20260831113655 58 336 0.0 1.0 0.00 0.00 0.00 1 1028.5
20260831112654 58 336 0.0 2.0 0.00 0.00 0.00 1 1028.5
20260831111653 59 336 1.0 2.0 0.00 0.00 0.00 3 1028.5
20260831110651 60 336 0.0 1.0 0.00 0.00 0.00 16 1028.5
20260831105650 60 336 0.0 1.0 0.00 0.00 0.00 24 1028.5
20260831104648 61 336 0.0 3.0 0.00 0.00 0.00 30 1028.5
20260831103647 62 336 0.0 8.0 0.00 0.00 0.00 34 1028.5
20260831102645 62 336 2.0 8.0 0.00 0.00 0.00 36 1028.5
20260831101612 62 339 3.0 9.0 0.00 0.00 0.00 34 1028.5
20260831100611 62 344 4.0 9.0 0.00 0.00 0.00 29 1028.5
20260831095610 62 349 3.0 8.0 0.00 0.00 0.00 21 1028.1
20260831094609 62 335 4.0 8.0 0.00 0.00 0.00 16 1028.1
20260831093608 61 339 4.0 8.0 0.00 0.00 0.00 9 1028.1
20260831092606 61 5 3.0 7.0 0.00 0.00 0.00 5 1028.1
20260831091605 62 11 1.0 3.0 0.00 0.00 0.00 5 1028.1
20260831090603 62 357 2.0 3.0 0.00 0.00 0.00 1 1028.1
20260831085602 62 353 1.0 3.0 0.00 0.00 0.00 1 1028.1
20260831084601 62 40 1.0 6.0 0.00 0.00 0.00 1 1028.1
20260831083559 63 330 1.0 6.0 0.00 0.00 0.00 1 1028.1
20260831082557 63 353 1.0 5.0 0.00 0.00 0.00 7 1028.1
20260831081555 64 45 2.0 5.0 0.00 0.00 0.00 17 1028.1
20260831080522 64 67 2.0 7.0 0.00 0.00 0.00 23 1028.1
20260831075521 64 49 1.0 7.0 0.00 0.00 0.00 33 1028.1
20260831074520 65 89 1.0 7.0 0.00 0.00 0.00 42 1027.8
20260831073518 65 64 0.0 7.0 0.00 0.00 0.00 48 1027.8
20260831072517 66 76 1.0 7.0 0.00 0.00 0.00 50 1027.8
20260831071515 66 356 4.0 8.0 0.00 0.00 0.00 54 1027.8
20260831070513 67 0 4.0 8.0 0.00 0.00 0.00 55 1027.4
20260831065512 67 350 3.0 8.0 0.00 0.00 0.00 56 1027.4
20260831064511 67 75 4.0 9.0 0.00 0.00 0.00 57 1027.4
20260831063509 68 44 5.0 9.0 0.00 0.00 0.00 58 1027.4
20260831062507 68 43 5.0 10.0 0.00 0.00 0.00 58 1027.4
20260831061506 68 47 4.0 10.0 0.00 0.00 0.00 57 1027.4
20260831060504 68 50 2.0 8.0 0.00 0.00 0.00 56 1027.4
20260831055503 68 37 2.0 8.0 0.00 0.00 0.00 55 1027.4
20260831054430 69 75 4.0 10.0 0.00 0.00 0.00 56 1027.4
20260831053428 69 21 6.0 11.0 0.00 0.00 0.00 56 1027.4
20260831052427 69 15 3.0 11.0 0.00 0.00 0.00 55 1027.5
20260831051426 70 54 4.0 10.0 0.00 0.00 0.00 56 1027.5
20260831050424 70 342 2.0 10.0 0.00 0.00 0.00 56 1027.5